,,Stat1,,Stat2,,Stat3,,Stat4,,Wind1,,Wind1,
time,status,PR1M_SUM,status,RH1M_AVG,status,SR1M_AVG,status,TA1M_AVG,status,W1dAve1m,status,W1sAve1m,
1999-12-09, 00:01:00,VALID,0,VALID,96.3088,VALID,-0.0509425,VALID,19.166,VALID,150,VALID,0,
1999-12-09, 00:02:00,VALID,0,VALID,96.3596,VALID,-0.0169808,VALID,19.1433,VALID,147,VALID,0,
1999-12-09, 00:03:00,VALID,0,VALID,96.5835,VALID,-0.0679233,VALID,19.1274,VALID,147,VALID,0,
1999-12-09, 00:04:00,VALID,0,VALID,96.8823,VALID,-0.0849042,VALID,19.1212,VALID,146,VALID,0,
1999-12-09, 00:05:00,VALID,0,VALID,96.984,VALID,-0.101885,VALID,19.1339,VALID,142,VALID,0,
1999-12-09, 00:06:00,VALID,0,VALID,96.5695,VALID,-0.0849042,VALID,19.1177,VALID,133,VALID,0,
1999-12-09, 00:07:00,VALID,0,VALID,96.4779,VALID,-0.101885,VALID,19.105,VALID,130,VALID,0,
1999-12-09, 00:08:00,VALID,0,VALID,96.5504,VALID,-0.0679233,VALID,19.0854,VALID,117,VALID,0,
1999-12-09, 00:09:00,VALID,0,VALID,96.7132,VALID,-0.0339617,VALID,19.0789,VALID,116,VALID,0,
1999-12-09, 00:10:01,VALID,0,VALID,96.7322,VALID,-0.0849042,VALID,19.0687,VALID,116,VALID,0,
1999-12-09, 00:11:01,VALID,0,VALID,96.7488,VALID,-0.0849042,VALID,19.0724,VALID,116,VALID,0,
1999-12-09, 00:12:00,VALID,0,VALID,96.7704,VALID,-0.0679233,VALID,19.062,VALID,116,VALID,0,
1999-12-09, 00:13:00,VALID,0,VALID,96.9064,VALID,-0.0679233,VALID,19.0821,VALID,116,VALID,0,
1999-12-09, 00:14:00,VALID,0,VALID,96.9128,VALID,-0.0339617,VALID,19.1112,VALID,118,VALID,0,
1999-12-09, 00:15:00,VALID,0,VALID,96.9726,VALID,-0.0339617,VALID,19.1336,VALID,125,VALID,0,
1999-12-09, 00:16:00,VALID,0,VALID,96.9153,VALID,-0.0509425,VALID,19.1794,VALID,125,VALID,0,
1999-12-09, 00:17:00,VALID,0,VALID,96.7971,VALID,-0.0339617,VALID,19.198,VALID,167,VALID,0,
1999-12-09, 00:18:00,VALID,0,VALID,96.6788,VALID,-0.0509425,VALID,19.2082,VALID,187,VALID,0,
1999-12-09, 00:19:00,VALID,0,VALID,96.6305,VALID,-0.0679233,VALID,19.1918,VALID,180,VALID,0,
1999-12-09, 00:20:00,VALID,0,VALID,96.8123,VALID,-0.0849042,VALID,19.1722,VALID,180,VALID,0,
1999-12-09, 00:21:00,VALID,0,VALID,96.9433,VALID,-0.0339617,VALID,19.1722,VALID,180,VALID,0,
1999-12-09, 00:22:01,VALID,0,VALID,96.9306,VALID,-0.0339617,VALID,19.1858,VALID,180,VALID,0,
1999-12-09, 00:23:00,VALID,0,VALID,97.1048,VALID,0,VALID,19.1752,VALID,184,VALID,0,
1999-12-09, 00:24:00,VALID,0,VALID,97.1086,VALID,0.0509425,VALID,19.1737,VALID,190,VALID,0.181127,
1999-12-09, 00:25:00,VALID,0,VALID,97.0654,VALID,0,VALID,19.1968,VALID,199,VALID,0.612253,
1999-12-09, 00:26:00,VALID,0,VALID,96.9751,VALID,0.0169808,VALID,19.207,VALID,194,VALID,1.00857,
1999-12-09, 00:27:00,VALID,0,VALID,96.8022,VALID,0.0169808,VALID,19.2364,VALID,187,VALID,0.920117,
1999-12-09, 00:28:00,VALID,0,VALID,96.6814,VALID,0.0169808,VALID,19.2488,VALID,189,VALID,0.857171,
1999-12-09, 00:29:00,VALID,0,VALID,96.4779,VALID,0.0169808,VALID,19.2816,VALID,177,VALID,0.808134,
1999-12-09, 00:30:00,VALID,0,VALID,96.4919,VALID,0.0339617,VALID,19.2871,VALID,163,VALID,0.740337,
1999-12-09, 00:31:00,VALID,0,VALID,96.4359,VALID,0.0339617,VALID,19.2978,VALID,151,VALID,0.807675,
1999-12-09, 00:32:00,VALID,0,VALID,96.4601,VALID,0.0169808,VALID,19.2876,VALID,142,VALID,0.889732,
1999-12-09, 00:33:01,VALID,0,VALID,96.4881,VALID,0.0169808,VALID,19.2655,VALID,149,VALID,0.958534,
1999-12-09, 00:34:00,VALID,0,VALID,96.469,VALID,0,VALID,19.2617,VALID,149,VALID,0.933277,
1999-12-09, 00:35:00,VALID,0,VALID,96.4703,VALID,0.0339617,VALID,19.2585,VALID,154,VALID,0.893029,
1999-12-09, 00:36:00,VALID,0,VALID,96.4677,VALID,0,VALID,19.252,VALID,159,VALID,0.881579,
1999-12-09, 00:37:00,VALID,0,VALID,96.4957,VALID,0.0169808,VALID,19.2523,VALID,166,VALID,0.753906,
1999-12-09, 00:38:00,VALID,0,VALID,96.4728,VALID,0,VALID,19.2294,VALID,185,VALID,0.790865,
1999-12-09, 00:39:00,VALID,0,VALID,96.3215,VALID,0,VALID,19.2329,VALID,193,VALID,0.938477,
1999-12-09, 00:40:00,VALID,0,VALID,96.2109,VALID,0.0509425,VALID,19.2516,VALID,203,VALID,0.821752,
1999-12-09, 00:41:00,VALID,0,VALID,96.057,VALID,0,VALID,19.2911,VALID,199,VALID,0.908923,
1999-12-09, 00:42:00,VALID,0,VALID,96.0888,VALID,0.0169808,VALID,19.307,VALID,203,VALID,0.38713,
1999-12-09, 00:43:01,VALID,0,VALID,96.0061,VALID,0.0169808,VALID,19.3102,VALID,200,VALID,0,
1999-12-09, 00:44:00,VALID,0,VALID,95.8472,VALID,0,VALID,19.3139,VALID,179,VALID,0,
1999-12-09, 00:45:00,VALID,0,VALID,95.7353,VALID,0.0339617,VALID,19.3102,VALID,179,VALID,0,
1999-12-09, 00:46:00,VALID,0,VALID,95.9146,VALID,0,VALID,19.3264,VALID,183,VALID,0,
1999-12-09, 00:47:00,VALID,0,VALID,95.9655,VALID,0,VALID,19.308,VALID,188,VALID,0,
1999-12-09, 00:48:00,VALID,0,VALID,96.0786,VALID,0.0339617,VALID,19.3003,VALID,209,VALID,0,
1999-12-09, 00:49:00,VALID,0,VALID,96.0201,VALID,0,VALID,19.2941,VALID,209,VALID,0,
1999-12-09, 00:50:00,VALID,0,VALID,96.1804,VALID,0,VALID,19.3043,VALID,209,VALID,0,
1999-12-09, 00:51:00,VALID,0,VALID,96.2198,VALID,0.0169808,VALID,19.3137,VALID,209,VALID,0,
1999-12-09, 00:52:00,VALID,0,VALID,96.2274,VALID,0.0169808,VALID,19.3172,VALID,210,VALID,0,
1999-12-09, 00:53:00,VALID,0,VALID,96.3673,VALID,0,VALID,19.3105,VALID,210,VALID,0,
1999-12-09, 00:54:00,VALID,0,VALID,96.4067,VALID,0.0339617,VALID,19.3239,VALID,210,VALID,0,
1999-12-09, 00:55:00,VALID,0,VALID,96.4601,VALID,0.0169808,VALID,19.3038,VALID,210,VALID,0,
1999-12-09, 00:56:00,VALID,0,VALID,96.647,VALID,0.0169808,VALID,19.2978,VALID,210,VALID,0,
1999-12-09, 00:57:00,VALID,0,VALID,96.5313,VALID,0,VALID,19.2781,VALID,210,VALID,0,
1999-12-09, 00:58:00,VALID,0,VALID,96.5567,VALID,0.0169808,VALID,19.2329,VALID,202,VALID,0,
1999-12-09, 00:59:00,VALID,0,VALID,96.7971,VALID,0,VALID,19.1938,VALID,201,VALID,0,
1999-12-09, 01:00:00,VALID,0,VALID,97.0857,VALID,0.0339617,VALID,19.1615,VALID,221,VALID,0,
1999-12-09, 01:01:00,VALID,0,VALID,97.1544,VALID,0,VALID,19.1294,VALID,221,VALID,0,
1999-12-09, 01:02:00,VALID,0,VALID,97.2116,VALID,0.0169808,VALID,19.11,VALID,224,VALID,0,
1999-12-09, 01:03:00,VALID,0,VALID,97.1836,VALID,0.0169808,VALID,19.1073,VALID,218,VALID,0,
1999-12-09, 01:04:00,VALID,0,VALID,97.1582,VALID,0.0169808,VALID,19.1105,VALID,227,VALID,0,
1999-12-09, 01:05:00,VALID,0,VALID,97.1531,VALID,0,VALID,19.11,VALID,228,VALID,0,
1999-12-09, 01:06:00,VALID,0,VALID,97.1773,VALID,0.0169808,VALID,19.1066,VALID,227,VALID,0,
1999-12-09, 01:07:00,VALID,0,VALID,97.2027,VALID,0,VALID,19.1098,VALID,226,VALID,0,
1999-12-09, 01:08:00,VALID,0,VALID,97.1913,VALID,-0.0679233,VALID,19.1078,VALID,216,VALID,0,
1999-12-09, 01:09:00,VALID,0,VALID,97.1951,VALID,-0.0849042,VALID,19.1053,VALID,201,VALID,0,
1999-12-09, 01:10:00,VALID,0,VALID,97.232,VALID,-0.101885,VALID,19.0891,VALID,193,VALID,0,
1999-12-09, 01:11:00,VALID,0,VALID,97.1887,VALID,-0.101885,VALID,19.0764,VALID,190,VALID,0,
1999-12-09, 01:12:00,VALID,0,VALID,97.1417,VALID,-0.0679233,VALID,19.0598,VALID,187,VALID,0,
1999-12-09, 01:13:00,VALID,0,VALID,97.232,VALID,-0.0679233,VALID,19.0399,VALID,195,VALID,0,
1999-12-09, 01:14:00,VALID,0,VALID,97.3884,VALID,-0.0679233,VALID,19.0441,VALID,202,VALID,0,
1999-12-09, 01:15:01,VALID,0,VALID,97.4354,VALID,-0.118866,VALID,19.0304,VALID,203,VALID,0,
1999-12-09, 01:16:00,VALID,0,VALID,97.3057,VALID,-0.101885,VALID,19.0339,VALID,200,VALID,0,
1999-12-09, 01:17:00,VALID,0,VALID,97.0896,VALID,-0.0849042,VALID,19.0498,VALID,188,VALID,0,
1999-12-09, 01:18:00,VALID,0,VALID,96.9904,VALID,-0.0509425,VALID,19.0729,VALID,172,VALID,0,
1999-12-09, 01:19:00,VALID,0,VALID,96.9293,VALID,-0.0339617,VALID,19.0724,VALID,163,VALID,0,
1999-12-09, 01:20:00,VALID,0,VALID,96.8352,VALID,-0.0509425,VALID,19.0399,VALID,160,VALID,0,
1999-12-09, 01:21:00,VALID,0,VALID,96.8874,VALID,-0.101885,VALID,19.0214,VALID,155,VALID,0,
1999-12-09, 01:22:00,VALID,0,VALID,96.9408,VALID,-0.101885,VALID,18.9921,VALID,151,VALID,0,
1999-12-09, 01:23:00,VALID,0,VALID,97.0387,VALID,-0.0509425,VALID,18.9653,VALID,165,VALID,0,
1999-12-09, 01:24:00,VALID,0,VALID,97.0997,VALID,-0.0339617,VALID,18.9621,VALID,169,VALID,0,
1999-12-09, 01:25:00,VALID,0,VALID,97.129,VALID,-0.0169808,VALID,18.9752,VALID,170,VALID,0,
1999-12-09, 01:26:01,VALID,0,VALID,97.1124,VALID,-0.0339617,VALID,18.9819,VALID,170,VALID,0,
1999-12-09, 01:27:00,VALID,0,VALID,97.0552,VALID,-0.0169808,VALID,18.9986,VALID,175,VALID,0,
1999-12-09, 01:28:00,VALID,0,VALID,97.0082,VALID,-0.0509425,VALID,19.0043,VALID,200,VALID,0,
1999-12-09, 01:29:00,VALID,0,VALID,96.9293,VALID,-0.0169808,VALID,18.9981,VALID,199,VALID,0,
1999-12-09, 01:30:00,VALID,0,VALID,96.9408,VALID,0,VALID,18.9979,VALID,219,VALID,0,
1999-12-09, 01:31:00,VALID,0,VALID,96.9738,VALID,-0.0169808,VALID,19.0013,VALID,231,VALID,0,
1999-12-09, 01:32:00,VALID,0,VALID,96.9878,VALID,-0.0679233,VALID,18.9919,VALID,223,VALID,0,
1999-12-09, 01:33:00,VALID,0,VALID,96.97,VALID,-0.0849042,VALID,18.9819,VALID,227,VALID,0,
1999-12-09, 01:34:00,VALID,0,VALID,97.0069,VALID,-0.0509425,VALID,18.9792,VALID,224,VALID,0,
1999-12-09, 01:35:00,VALID,0,VALID,97.162,VALID,-0.0679233,VALID,18.9725,VALID,220,VALID,0,
1999-12-09, 01:36:00,VALID,0,VALID,97.2803,VALID,-0.0679233,VALID,18.966,VALID,210,VALID,0,
1999-12-09, 01:37:00,VALID,0,VALID,97.4481,VALID,-0.0339617,VALID,18.9494,VALID,217,VALID,0,
1999-12-09, 01:38:00,VALID,0,VALID,97.733,VALID,-0.0509425,VALID,18.9429,VALID,207,VALID,0,
1999-12-09, 01:39:00,VALID,0,VALID,97.8436,VALID,-0.0339617,VALID,18.9173,VALID,194,VALID,0,
1999-12-09, 01:40:00,VALID,0,VALID,97.9581,VALID,-0.0509425,VALID,18.882,VALID,195,VALID,0,
1999-12-09, 01:41:00,VALID,0,VALID,97.9759,VALID,-0.0509425,VALID,18.8395,VALID,191,VALID,0,
1999-12-09, 01:42:00,VALID,0,VALID,98.0382,VALID,-0.0169808,VALID,18.8171,VALID,191,VALID,0,
1999-12-09, 01:43:00,VALID,0,VALID,98.1386,VALID,-0.0509425,VALID,18.7873,VALID,186,VALID,0,
1999-12-09, 01:44:00,VALID,0,VALID,98.1819,VALID,-0.0679233,VALID,18.7877,VALID,182,VALID,0,
1999-12-09, 01:45:00,VALID,0,VALID,98.1831,VALID,-0.0339617,VALID,18.7845,VALID,185,VALID,0,
1999-12-09, 01:46:00,VALID,0,VALID,98.2009,VALID,-0.0339617,VALID,18.7981,VALID,188,VALID,0,
1999-12-09, 01:47:00,VALID,0,VALID,98.1323,VALID,-0.0339617,VALID,18.8141,VALID,186,VALID,0,
1999-12-09, 01:48:01,VALID,0,VALID,98.0178,VALID,-0.0169808,VALID,18.83,VALID,184,VALID,0,
1999-12-09, 01:49:01,VALID,0,VALID,97.9492,VALID,-0.0339617,VALID,18.8593,VALID,185,VALID,0,
1999-12-09, 01:50:00,VALID,0,VALID,97.8932,VALID,-0.0339617,VALID,18.866,VALID,191,VALID,0,
1999-12-09, 01:51:00,VALID,0,VALID,97.8195,VALID,-0.0169808,VALID,18.8559,VALID,198,VALID,0,
1999-12-09, 01:52:00,VALID,0,VALID,97.8093,VALID,-0.0339617,VALID,18.8591,VALID,221,VALID,0,
1999-12-09, 01:53:00,VALID,0,VALID,97.7788,VALID,-0.0339617,VALID,18.8586,VALID,228,VALID,0,
1999-12-09, 01:54:00,VALID,0,VALID,97.7686,VALID,-0.0339617,VALID,18.8688,VALID,216,VALID,0,
1999-12-09, 01:55:00,VALID,0,VALID,97.6986,VALID,-0.0169808,VALID,18.879,VALID,222,VALID,0,
1999-12-09, 01:56:00,VALID,0,VALID,97.677,VALID,-0.0169808,VALID,18.8725,VALID,226,VALID,0,
1999-12-09, 01:57:00,VALID,0,VALID,97.677,VALID,0,VALID,18.869,VALID,222,VALID,0,
1999-12-09, 01:58:00,VALID,0,VALID,97.7508,VALID,-0.0169808,VALID,18.8559,VALID,223,VALID,0,
1999-12-09, 01:59:01,VALID,0,VALID,97.8067,VALID,0,VALID,18.8531,VALID,225,VALID,0,
1999-12-09, 02:00:00,VALID,0,VALID,97.836,VALID,-0.0509425,VALID,18.8466,VALID,230,VALID,0,
1999-12-09, 02:01:00,VALID,0,VALID,97.9021,VALID,-0.0169808,VALID,18.8429,VALID,231,VALID,0,
1999-12-09, 02:02:00,VALID,0,VALID,97.8958,VALID,-0.0169808,VALID,18.8335,VALID,229,VALID,0,
1999-12-09, 02:03:00,VALID,0,VALID,97.9326,VALID,-0.0339617,VALID,18.827,VALID,214,VALID,0,
1999-12-09, 02:04:00,VALID,0,VALID,98.014,VALID,0,VALID,18.8171,VALID,216,VALID,0,
1999-12-09, 02:05:00,VALID,0,VALID,98.0547,VALID,-0.0339617,VALID,18.8233,VALID,211,VALID,0,
1999-12-09, 02:06:00,VALID,0,VALID,98.0204,VALID,-0.0169808,VALID,18.8302,VALID,209,VALID,0,
1999-12-09, 02:07:00,VALID,0,VALID,98.0331,VALID,-0.0169808,VALID,18.8335,VALID,205,VALID,0,
1999-12-09, 02:08:00,VALID,0,VALID,97.9848,VALID,0.0169808,VALID,18.8424,VALID,201,VALID,0,
1999-12-09, 02:09:00,VALID,0,VALID,97.7762,VALID,0.0679233,VALID,18.8316,VALID,198,VALID,0,
1999-12-09, 02:10:01,VALID,0,VALID,97.6529,VALID,0.101885,VALID,18.8415,VALID,197,VALID,0,
1999-12-09, 02:11:00,VALID,0,VALID,97.6058,VALID,0.118866,VALID,18.8514,VALID,193,VALID,0,
1999-12-09, 02:12:00,VALID,0,VALID,97.5105,VALID,0.0509425,VALID,18.8676,VALID,192,VALID,0,
1999-12-09, 02:13:00,VALID,0,VALID,97.4723,VALID,0.101885,VALID,18.8706,VALID,201,VALID,0,
1999-12-09, 02:14:00,VALID,0,VALID,97.4825,VALID,0.0849042,VALID,18.8872,VALID,200,VALID,0,
1999-12-09, 02:15:00,VALID,0,VALID,97.457,VALID,0.0509425,VALID,18.8999,VALID,192,VALID,0,
1999-12-09, 02:16:00,VALID,0,VALID,97.2905,VALID,0.101885,VALID,18.932,VALID,188,VALID,0,
1999-12-09, 02:17:00,VALID,0,VALID,97.0946,VALID,0.0509425,VALID,18.9583,VALID,183,VALID,0,
1999-12-09, 02:18:00,VALID,0,VALID,96.984,VALID,0.0679233,VALID,18.968,VALID,181,VALID,0,
1999-12-09, 02:19:00,VALID,0,VALID,96.7831,VALID,0.0679233,VALID,18.9579,VALID,177,VALID,0,
1999-12-09, 02:20:00,VALID,0,VALID,96.8276,VALID,0.101885,VALID,18.9318,VALID,177,VALID,0,
1999-12-09, 02:21:00,VALID,0,VALID,96.8492,VALID,0.0679233,VALID,18.9094,VALID,183,VALID,0,
1999-12-09, 02:22:01,VALID,0,VALID,97.0247,VALID,0.0679233,VALID,18.8939,VALID,186,VALID,0,
1999-12-09, 02:23:00,VALID,0,VALID,97.3159,VALID,0.0169808,VALID,18.8678,VALID,189,VALID,0,
1999-12-09, 02:24:00,VALID,0,VALID,97.5575,VALID,0.0339617,VALID,18.8457,VALID,197,VALID,0,
1999-12-09, 02:25:00,VALID,0,VALID,97.7889,VALID,0.0339617,VALID,18.8191,VALID,193,VALID,0,
1999-12-09, 02:26:00,VALID,0,VALID,97.986,VALID,0.0339617,VALID,18.7935,VALID,192,VALID,0,
1999-12-09, 02:27:00,VALID,0,VALID,98.2416,VALID,0.0169808,VALID,18.7644,VALID,187,VALID,0,
1999-12-09, 02:28:00,VALID,0,VALID,98.3256,VALID,0.0509425,VALID,18.745,VALID,189,VALID,0,
1999-12-09, 02:29:00,VALID,0,VALID,98.4858,VALID,0.0509425,VALID,18.7353,VALID,187,VALID,0,
1999-12-09, 02:30:00,VALID,0,VALID,98.5468,VALID,0.0339617,VALID,18.7291,VALID,193,VALID,0,
1999-12-09, 02:31:00,VALID,0,VALID,98.5519,VALID,0.0509425,VALID,18.6995,VALID,185,VALID,0,
1999-12-09, 02:32:00,VALID,0,VALID,98.557,VALID,0.0339617,VALID,18.6838,VALID,181,VALID,0,
1999-12-09, 02:33:00,VALID,0,VALID,98.6676,VALID,0.0509425,VALID,18.6769,VALID,185,VALID,0,
1999-12-09, 02:34:00,VALID,0,VALID,98.646,VALID,0,VALID,18.6677,VALID,181,VALID,0,
1999-12-09, 02:35:00,VALID,0,VALID,98.6129,VALID,0.0509425,VALID,18.6418,VALID,180,VALID,0,
1999-12-09, 02:36:00,VALID,0,VALID,98.6956,VALID,0.0509425,VALID,18.6254,VALID,173,VALID,0,
1999-12-09, 02:37:00,VALID,0,VALID,98.6396,VALID,0.0169808,VALID,18.5995,VALID,169,VALID,0,
1999-12-09, 02:38:00,VALID,0,VALID,98.6689,VALID,-0.0509425,VALID,18.5977,VALID,163,VALID,0,
1999-12-09, 02:39:00,VALID,0,VALID,98.6117,VALID,-0.0849042,VALID,18.5656,VALID,163,VALID,0,
1999-12-09, 02:40:00,VALID,0,VALID,98.6269,VALID,-0.101885,VALID,18.546,VALID,164,VALID,0,
1999-12-09, 02:41:00,VALID,0,VALID,98.59,VALID,-0.0849042,VALID,18.5236,VALID,164,VALID,0,
1999-12-09, 02:42:00,VALID,0,VALID,98.7732,VALID,-0.0849042,VALID,18.5335,VALID,166,VALID,0,
1999-12-09, 02:43:01,VALID,0,VALID,98.9397,VALID,-0.0679233,VALID,18.5499,VALID,170,VALID,0,
1999-12-09, 02:44:00,VALID,0,VALID,98.9614,VALID,-0.101885,VALID,18.5497,VALID,174,VALID,0,
1999-12-09, 02:45:00,VALID,0,VALID,98.9283,VALID,-0.0849042,VALID,18.5465,VALID,172,VALID,0,
1999-12-09, 02:46:00,VALID,0,VALID,99.0046,VALID,-0.101885,VALID,18.5435,VALID,177,VALID,0,
1999-12-09, 02:47:00,VALID,0,VALID,99.0338,VALID,-0.101885,VALID,18.5663,VALID,183,VALID,0,
1999-12-09, 02:48:00,VALID,0,VALID,98.9436,VALID,-0.101885,VALID,18.5631,VALID,189,VALID,0,
1999-12-09, 02:49:00,VALID,0,VALID,98.9525,VALID,-0.101885,VALID,18.5529,VALID,186,VALID,0,
1999-12-09, 02:50:00,VALID,0,VALID,98.955,VALID,-0.101885,VALID,18.5492,VALID,184,VALID,0,
1999-12-09, 02:51:00,VALID,0,VALID,98.9919,VALID,-0.101885,VALID,18.5495,VALID,184,VALID,0,
1999-12-09, 02:52:00,VALID,0,VALID,99.0796,VALID,-0.0849042,VALID,18.5661,VALID,187,VALID,0,
1999-12-09, 02:53:00,VALID,0,VALID,99.1292,VALID,-0.0509425,VALID,18.5883,VALID,190,VALID,0,
1999-12-09, 02:54:00,VALID,0,VALID,99.1038,VALID,0,VALID,18.6035,VALID,194,VALID,0,
1999-12-09, 02:55:01,VALID,0,VALID,99.0466,VALID,0,VALID,18.6233,VALID,193,VALID,0,
1999-12-09, 02:56:00,VALID,0,VALID,98.9461,VALID,0.0169808,VALID,18.6162,VALID,190,VALID,0,
1999-12-09, 02:57:00,VALID,0,VALID,98.8634,VALID,0,VALID,18.6162,VALID,187,VALID,0,
1999-12-09, 02:58:00,VALID,0,VALID,98.7223,VALID,0.0339617,VALID,18.6095,VALID,189,VALID,0,
1999-12-09, 02:59:00,VALID,0,VALID,98.6714,VALID,0.0339617,VALID,18.6032,VALID,183,VALID,0,
1999-12-09, 03:00:00,VALID,0,VALID,98.6485,VALID,0.0339617,VALID,18.5998,VALID,193,VALID,0,
1999-12-09, 03:01:00,VALID,0,VALID,98.6078,VALID,0.0169808,VALID,18.603,VALID,181,VALID,0,
1999-12-09, 03:02:00,VALID,0,VALID,98.4667,VALID,0,VALID,18.5873,VALID,163,VALID,0,
1999-12-09, 03:03:00,VALID,0,VALID,98.6295,VALID,0.0339617,VALID,18.6099,VALID,189,VALID,0,
1999-12-09, 03:04:00,VALID,0,VALID,98.5913,VALID,0,VALID,18.6129,VALID,198,VALID,0,
1999-12-09, 03:05:00,VALID,0,VALID,98.5862,VALID,0.0169808,VALID,18.6219,VALID,201,VALID,0,
1999-12-09, 03:06:01,VALID,0,VALID,98.501,VALID,0.0509425,VALID,18.6483,VALID,202,VALID,0,
1999-12-09, 03:07:00,VALID,0,VALID,98.4553,VALID,0.0339617,VALID,18.6515,VALID,204,VALID,0,
1999-12-09, 03:08:00,VALID,0,VALID,98.3828,VALID,0,VALID,18.6552,VALID,197,VALID,0,
1999-12-09, 03:09:00,VALID,0,VALID,98.3243,VALID,-0.0679233,VALID,18.6654,VALID,198,VALID,0,
1999-12-09, 03:10:00,VALID,0,VALID,98.2823,VALID,-0.0509425,VALID,18.6721,VALID,195,VALID,0,
1999-12-09, 03:11:00,VALID,0,VALID,98.206,VALID,-0.0509425,VALID,18.6922,VALID,199,VALID,0,
1999-12-09, 03:12:00,VALID,0,VALID,98.1386,VALID,-0.0679233,VALID,18.6852,VALID,190,VALID,0,
1999-12-09, 03:13:00,VALID,0,VALID,98.0331,VALID,-0.0509425,VALID,18.6915,VALID,190,VALID,0,
1999-12-09, 03:14:00,VALID,0,VALID,97.9441,VALID,-0.0849042,VALID,18.6984,VALID,186,VALID,0,
1999-12-09, 03:15:00,VALID,0,VALID,97.8919,VALID,-0.101885,VALID,18.6755,VALID,193,VALID,0,
1999-12-09, 03:16:00,VALID,0,VALID,97.9759,VALID,-0.0849042,VALID,18.6631,VALID,202,VALID,0,
1999-12-09, 03:17:01,VALID,0,VALID,98.0623,VALID,-0.101885,VALID,18.6598,VALID,208,VALID,0,
1999-12-09, 03:18:00,VALID,0,VALID,98.0941,VALID,-0.0509425,VALID,18.6462,VALID,220,VALID,0,
1999-12-09, 03:19:00,VALID,0,VALID,98.0979,VALID,-0.0849042,VALID,18.6499,VALID,210,VALID,0,
1999-12-09, 03:20:00,VALID,0,VALID,98.1501,VALID,-0.101885,VALID,18.6568,VALID,206,VALID,0,
1999-12-09, 03:21:00,VALID,0,VALID,98.1653,VALID,-0.0849042,VALID,18.6658,VALID,205,VALID,0,
1999-12-09, 03:22:00,VALID,0,VALID,98.1272,VALID,-0.101885,VALID,18.6728,VALID,204,VALID,0,
1999-12-09, 03:23:00,VALID,0,VALID,98.1183,VALID,-0.0169808,VALID,18.6848,VALID,205,VALID,0,
1999-12-09, 03:24:00,VALID,0,VALID,98.0814,VALID,0.0679233,VALID,18.6975,VALID,211,VALID,0,
1999-12-09, 03:25:00,VALID,0,VALID,98.0483,VALID,0.0339617,VALID,18.6967,VALID,213,VALID,0,
1999-12-09, 03:26:00,VALID,0,VALID,98.0598,VALID,0.0679233,VALID,18.7233,VALID,193,VALID,0,
1999-12-09, 03:27:00,VALID,0,VALID,97.953,VALID,0.0679233,VALID,18.7224,VALID,193,VALID,0,
1999-12-09, 03:28:01,VALID,0,VALID,97.8487,VALID,0.0849042,VALID,18.7261,VALID,200,VALID,0,
1999-12-09, 03:29:00,VALID,0,VALID,97.8271,VALID,0.0679233,VALID,18.7291,VALID,198,VALID,0,
1999-12-09, 03:30:00,VALID,0,VALID,97.8029,VALID,0.0339617,VALID,18.7455,VALID,190,VALID,0,
1999-12-09, 03:31:00,VALID,0,VALID,97.7139,VALID,0.0339617,VALID,18.7554,VALID,190,VALID,0,
1999-12-09, 03:32:00,VALID,0,VALID,97.6058,VALID,0.0339617,VALID,18.7614,VALID,184,VALID,0,
1999-12-09, 03:33:00,VALID,0,VALID,97.5168,VALID,0.0509425,VALID,18.7455,VALID,179,VALID,0,
1999-12-09, 03:34:00,VALID,0,VALID,97.499,VALID,0.0509425,VALID,18.7097,VALID,181,VALID,0,
1999-12-09, 03:35:00,VALID,0,VALID,97.6402,VALID,0.0339617,VALID,18.697,VALID,181,VALID,0,
1999-12-09, 03:36:00,VALID,0,VALID,97.7025,VALID,0.101885,VALID,18.6746,VALID,181,VALID,0,
1999-12-09, 03:37:01,VALID,0,VALID,97.7241,VALID,0.0509425,VALID,18.6418,VALID,181,VALID,0,
1999-12-09, 03:38:00,VALID,0,VALID,97.7826,VALID,0,VALID,18.6432,VALID,181,VALID,0,
1999-12-09, 03:39:01,VALID,0,VALID,97.8805,VALID,-0.0169808,VALID,18.63,VALID,181,VALID,0,
1999-12-09, 03:40:00,VALID,0,VALID,97.9288,VALID,0,VALID,18.6236,VALID,181,VALID,0,
1999-12-09, 03:41:00,VALID,0,VALID,97.9797,VALID,-0.0339617,VALID,18.621,VALID,181,VALID,0,
1999-12-09, 03:42:00,VALID,0,VALID,98.0013,VALID,-0.0339617,VALID,18.6372,VALID,181,VALID,0,
1999-12-09, 03:43:00,VALID,0,VALID,97.7635,VALID,-0.0849042,VALID,18.6077,VALID,181,VALID,0,
1999-12-09, 03:44:00,VALID,0,VALID,97.2727,VALID,-0.0849042,VALID,18.5467,VALID,173,VALID,0,
1999-12-09, 03:45:00,VALID,0,VALID,97.1646,VALID,-0.0509425,VALID,18.5012,VALID,130,VALID,0,
1999-12-09, 03:46:00,VALID,0,VALID,97.4761,VALID,-0.0679233,VALID,18.4721,VALID,127,VALID,0,
1999-12-09, 03:47:00,VALID,0,VALID,97.8627,VALID,-0.0169808,VALID,18.4523,VALID,135,VALID,0,
1999-12-09, 03:48:00,VALID,0,VALID,98.3116,VALID,-0.0679233,VALID,18.4689,VALID,172,VALID,0,
1999-12-09, 03:49:00,VALID,0,VALID,98.5621,VALID,-0.0679233,VALID,18.5077,VALID,167,VALID,0,
1999-12-09, 03:50:00,VALID,0,VALID,98.5532,VALID,-0.0849042,VALID,18.5111,VALID,160,VALID,0,
1999-12-09, 03:51:00,VALID,0,VALID,98.2747,VALID,-0.0679233,VALID,18.4984,VALID,159,VALID,0,
1999-12-09, 03:52:00,VALID,0,VALID,98.2276,VALID,-0.0849042,VALID,18.4624,VALID,166,VALID,0.075,
1999-12-09, 03:53:00,VALID,0,VALID,98.4336,VALID,0.0339617,VALID,18.491,VALID,168,VALID,0.891258,
1999-12-09, 03:54:00,VALID,0,VALID,98.4591,VALID,0.0509425,VALID,18.4873,VALID,163,VALID,0.764569,
1999-12-09, 03:55:00,VALID,0,VALID,98.3968,VALID,0.0679233,VALID,18.4714,VALID,164,VALID,0.615039,
1999-12-09, 03:56:00,VALID,0,VALID,98.2747,VALID,0.0339617,VALID,18.4352,VALID,152,VALID,0.778646,
1999-12-09, 03:57:00,VALID,0,VALID,98.1183,VALID,0.0509425,VALID,18.4158,VALID,154,VALID,0.580329,
1999-12-09, 03:58:00,VALID,0,VALID,98.2035,VALID,0.101885,VALID,18.3929,VALID,163,VALID,0.83683,
1999-12-09, 03:59:00,VALID,0,VALID,98.4438,VALID,0.0849042,VALID,18.4123,VALID,153,VALID,0.945508,
1999-12-09, 04:00:00,VALID,0,VALID,98.3281,VALID,0.0339617,VALID,18.3964,VALID,150,VALID,0.827303,
1999-12-09, 04:01:00,VALID,0,VALID,98.2823,VALID,0.0509425,VALID,18.3865,VALID,153,VALID,0.777549,
1999-12-09, 04:02:00,VALID,0,VALID,98.3014,VALID,0.0849042,VALID,18.3638,VALID,156,VALID,0.848133,
1999-12-09, 04:03:00,VALID,0,VALID,98.5875,VALID,0.0679233,VALID,18.3964,VALID,170,VALID,0.830273,
1999-12-09, 04:04:00,VALID,0,VALID,98.6816,VALID,-0.0679233,VALID,18.4142,VALID,173,VALID,0.886218,
1999-12-09, 04:05:00,VALID,0,VALID,98.7248,VALID,-0.0509425,VALID,18.4273,VALID,182,VALID,0.686811,
1999-12-09, 04:06:00,VALID,0,VALID,98.7108,VALID,-0.0509425,VALID,18.4137,VALID,199,VALID,0.785362,
1999-12-09, 04:07:00,VALID,0,VALID,98.7223,VALID,-0.0849042,VALID,18.4405,VALID,195,VALID,0.91682,
1999-12-09, 04:08:00,VALID,0,VALID,98.6702,VALID,-0.0509425,VALID,18.4463,VALID,192,VALID,1.04286,
1999-12-09, 04:09:00,VALID,0,VALID,98.6409,VALID,0,VALID,18.4518,VALID,186,VALID,0.890419,
1999-12-09, 04:10:00,VALID,0,VALID,98.5443,VALID,0,VALID,18.4645,VALID,190,VALID,0.769215,
1999-12-09, 04:11:00,VALID,0,VALID,98.6104,VALID,0.0169808,VALID,18.494,VALID,190,VALID,0.800881,
1999-12-09, 04:12:00,VALID,0,VALID,98.5862,VALID,-0.0169808,VALID,18.5137,VALID,189,VALID,0.752673,
1999-12-09, 04:13:00,VALID,0,VALID,98.5137,VALID,-0.0169808,VALID,18.5231,VALID,177,VALID,0.627056,
1999-12-09, 04:14:00,VALID,0,VALID,98.2849,VALID,-0.0169808,VALID,18.4975,VALID,169,VALID,0.571915,
1999-12-09, 04:15:00,VALID,0,VALID,98.365,VALID,0,VALID,18.5072,VALID,180,VALID,0.787891,